Weather History for PHNY - September, 2013

Change the Weather History Date:

Monday, September 16, 2013

  Actual Average (WUND) Record (WUND)
Temperature  
Mean Temperature 76 °F -  
Max Temperature 84 °F - - (-1)
Min Temperature 68 °F - - (-1)
Cooling Degree Days 11    
Growing Degree Days 26 (Base 50)    
Moisture  
Dew Point 66 °F    
Average Humidity 72    
Maximum Humidity 90    
Minimum Humidity 51    
Precipitation  
Precipitation 0.00 in - - ()
Sea Level Pressure  
Sea Level Pressure 30.00 in    
Wind  
Wind Speed 11 mph (NE)    
Max Wind Speed 25 mph    
Max Gust Speed 29 mph    
Visibility 10 miles    
Events      
Averages and records for this station are not official NWS values.
T = Trace of Precipitation, MM = Missing Value Source: NWS Daily Summary

Daily Weather History Graph

Daily Weather History Graph

Search for Another Location

Airport or City:

Trip Planner

Search our weather history database for the weather conditions in past years. The results will help you decide how hot, cold, wet, or windy it might be!

Date:

Astronomy

Sep. 16, 2013 Rise Set
Actual Time 6:15 AM HST 6:29 PM HST
Civil Twilight 5:53 AM HST 6:51 PM HST
Nautical Twilight 5:27 AM HST 7:17 PM HST
Astronomical Twilight 5:01 AM HST 7:43 PM HST
Moon 4:32 PM HST (9/16) 3:31 AM HST (9/16)
Length of Visible Light 12h 58m
Length of Day
12h 13m
Waxing Gibbous, 92% of the Moon is Illuminated
Sep 16
Waxing Gibbous
Sep 19
Full
Sep 26
Last Quarter
Oct 4
New
Oct 11
First Quarter

Hourly Weather History & Observations

Time (HST) Temp. Heat Index Dew Point Humidity Pressure Visibility Wind Dir Wind Speed Gust Speed Precip Events Conditions
12:56 AM 70.0 °F - 63.9 °F 81% 29.96 in 10.0 mi ENE 6.9 mph - N/A   Clear
1:56 AM 70.0 °F - 63.9 °F 81% 29.96 in 10.0 mi NE 4.6 mph - N/A   Clear
2:56 AM 70.9 °F - 65.8 °F 84% 29.96 in 10.0 mi ENE 6.9 mph - N/A   Clear
3:56 AM 68.9 °F - 65.8 °F 90% 29.96 in 10.0 mi NE 5.8 mph - N/A   Clear
4:56 AM 68.9 °F - 63.9 °F 84% 29.97 in 10.0 mi East 8.1 mph - N/A   Clear
5:56 AM 70.0 °F - 66.9 °F 90% 29.99 in 10.0 mi NE 11.5 mph - N/A   Clear
6:56 AM 72.9 °F - 66.9 °F 82% 29.99 in 10.0 mi ENE 9.2 mph - N/A   Clear
7:56 AM 79.0 °F - 65.8 °F 64% 30.00 in 10.0 mi ENE 10.4 mph - N/A   Clear
8:56 AM 79.0 °F - 65.8 °F 64% 30.02 in 10.0 mi NE 12.7 mph - N/A   Mostly Cloudy
9:56 AM 79.9 °F - 64.9 °F 60% 30.03 in 10.0 mi ENE 8.1 mph - N/A   Scattered Clouds
10:56 AM 82.4 °F 84.6 °F 66.2 °F 58% 30.09 in 10.0 mi NNE 12.7 mph 18.4 mph N/A   Scattered Clouds
11:56 AM 84.9 °F 87.1 °F 65.8 °F 53% 30.00 in 10.0 mi NNE 11.5 mph 18.4 mph N/A   Scattered Clouds
12:56 PM 81.9 °F 84.2 °F 66.9 °F 60% 29.99 in 10.0 mi NNE 21.9 mph 27.6 mph N/A   Partly Cloudy
1:56 PM 82.9 °F 85.4 °F 66.9 °F 58% 29.96 in 10.0 mi NE 21.9 mph - N/A   Partly Cloudy
2:56 PM 84.9 °F 86.6 °F 64.9 °F 51% 29.95 in 10.0 mi NE 25.3 mph 28.8 mph N/A   Clear
3:56 PM 81.0 °F 83.3 °F 66.9 °F 62% 29.96 in 10.0 mi NE 24.2 mph 28.8 mph N/A   Scattered Clouds
4:56 PM 81.0 °F 82.7 °F 64.9 °F 58% 29.97 in 10.0 mi NE 19.6 mph - N/A   Clear
5:56 PM 77.0 °F - 65.8 °F 68% 29.97 in 10.0 mi NE 23.0 mph - N/A   Clear
6:56 PM 74.8 °F - 66.9 °F 76% 30.00 in 10.0 mi NE 16.1 mph - N/A   Clear
7:56 PM 73.9 °F - 68.0 °F 82% 30.00 in 10.0 mi NE 15.0 mph - N/A   Clear
8:56 PM 72.9 °F - 68.0 °F 85% 30.03 in 10.0 mi NE 15.0 mph - N/A   Clear
9:56 PM 72.9 °F - 66.9 °F 82% 30.04 in 10.0 mi NE 16.1 mph - N/A   Clear
10:56 PM 73.4 °F - 66.2 °F 78% 30.10 in 10.0 mi ENE 11.5 mph - N/A   Scattered Clouds
11:56 PM 72.9 °F - 66.9 °F 82% 30.02 in 10.0 mi ENE 12.7 mph - N/A   Clear